Location: 476 Grange Obs.
(45.1420°N, 7.1420°E)
Time: 01:01:34
(UTC+01:00)

ISS - Visible Passes

Search period start: 25 March 2017 00:00
Search period end: 04 April 2017 01:00
Orbit: 399 x 409 km, 51.6° (Epoch: 25 March)

Date Brightness Start Highest point End Pass type
(mag) Time Alt. Az. Time Alt. Az. Time Alt. Az.
26 Mar -1.6 21:06:48 10° S 21:07:25 13° SSE 21:07:25 13° SSE visible
27 Mar -2.3 21:49:22 10° SW 21:51:06 28° SW 21:51:06 28° SW visible
28 Mar -3.1 20:57:17 10° SSW 21:00:15 33° SE 21:01:45 22° E visible
28 Mar -1.1 22:33:31 10° W 22:34:28 17° W 22:34:28 17° W visible
29 Mar -3.6 21:40:56 10° WSW 21:44:11 67° NNW 21:44:52 49° NE visible
30 Mar -3.9 20:48:29 10° SW 20:51:44 73° SSE 20:55:00 10° ENE visible
30 Mar -1.7 22:25:28 10° WNW 22:27:43 28° NW 22:27:43 28° NW visible
31 Mar -2.6 21:32:43 10° W 21:35:50 39° NNW 21:37:43 20° NE visible
31 Mar -0.3 23:10:05 10° WNW 23:10:22 12° NW 23:10:22 12° NW visible
01 Apr -3.3 20:40:04 10° WSW 20:43:16 58° NNW 20:46:31 10° NE visible
01 Apr -1.9 22:17:23 10° WNW 22:20:11 26° N 22:20:12 26° N visible
02 Apr -2.1 21:24:37 10° WNW 21:27:31 29° N 21:29:57 13° NE visible
02 Apr -0.7 23:01:44 10° NW 23:02:35 15° NW 23:02:35 15° NW visible
03 Apr -2.4 20:31:50 10° W 20:34:53 36° NNW 20:37:57 10° NE visible
03 Apr -2.0 22:09:08 10° NW 22:11:56 25° N 22:12:14 25° NNE visible
